Weather History for KSZL - January, 2013

Change the Weather History Date:

Thursday, January 24, 2013

  Actual Average Record
Temperature  
Mean Temperature 19 °F -  
Max Temperature 27 °F 37 °F 57 °F (2006)
Min Temperature 11 °F 20 °F 1 °F (2008)
Degree Days  
Heating Degree Days 46    
Moisture  
Dew Point 7 °F    
Average Humidity 55    
Maximum Humidity 71    
Minimum Humidity 43    
Precipitation  
Precipitation 0.00 in - - ()
Sea Level Pressure  
Sea Level Pressure 30.39 in    
Wind  
Wind Speed 12 mph (ENE)    
Max Wind Speed 16 mph    
Max Gust Speed 21 mph    
Visibility 10 miles    
Events      
Averages and records for this station are not official NWS values.
T = Trace of Precipitation, MM = Missing Value Source: NWS Daily Summary

Daily Weather History Graph

Daily Weather History Graph

Search for Another Location

Airport or City:

Trip Planner

Search our weather history database for the weather conditions in past years. The results will help you decide how hot, cold, wet, or windy it might be!

Date:

Astronomy

Jan. 24, 2013 Rise Set
Actual Time 7:26 AM CST 5:27 PM CST
Civil Twilight 6:57 AM CST 5:55 PM CST
Nautical Twilight 6:25 AM CST 6:27 PM CST
Astronomical Twilight 5:53 AM CST 6:59 PM CST
Moon 3:30 PM CST (1/24) 5:23 AM CST (1/24)
Length of Visible Light 10h 58m
Length of Day
10h 01m
Waxing Gibbous, 94% of the Moon is Illuminated
Jan 24
Waxing Gibbous
Jan 26
Full
Feb 3
Last Quarter
Feb 10
New
Feb 17
First Quarter

Hourly Weather History & Observations

Time (CST) Temp. Windchill Dew Point Humidity Pressure Visibility Wind Dir Wind Speed Gust Speed Precip Events Conditions
12:55 AM 23.4 °F 11.6 °F 14.0 °F 67% 30.44 in 10.0 mi NNE 12.7 mph 20.7 mph N/A   Clear
1:55 AM 20.8 °F 9.0 °F 12.2 °F 69% 30.45 in 10.0 mi NNE 11.5 mph - N/A   Clear
2:55 AM 19.2 °F 7.0 °F 11.1 °F 71% 30.48 in 10.0 mi NNE 11.5 mph - N/A   Clear
3:55 AM 16.0 °F 1.7 °F 4.6 °F 61% 30.49 in 10.0 mi NNE 13.8 mph - N/A   Clear
4:55 AM 14.4 °F -1.5 °F 3.0 °F 61% 30.50 in 10.0 mi NE 16.1 mph - N/A   Clear
5:55 AM 12.9 °F -3.4 °F 2.5 °F 63% 30.51 in 10.0 mi NE 16.1 mph - N/A   Clear
6:55 AM 11.3 °F -4.9 °F 2.7 °F 68% 30.51 in 10.0 mi ENE 15.0 mph - N/A   Clear
7:55 AM 11.5 °F -2.7 °F 2.8 °F 68% 30.55 in 10.0 mi ENE 11.5 mph - N/A   Clear
8:55 AM 13.5 °F -2.1 °F 4.3 °F 67% 30.54 in 10.0 mi ENE 15.0 mph - N/A   Partly Cloudy
9:55 AM 15.3 °F 1.4 °F 4.6 °F 63% 30.56 in 10.0 mi East 12.7 mph - N/A   Clear
10:55 AM 18.1 °F 5.6 °F 5.9 °F 59% 30.54 in 10.0 mi East 11.5 mph - N/A   Clear
11:55 AM 21.7 °F 10.2 °F 6.3 °F 51% 30.49 in 10.0 mi East 11.5 mph 18.4 mph N/A   Clear
12:55 PM 23.9 °F 15.0 °F 6.1 °F 47% 30.45 in 10.0 mi East 8.1 mph - N/A   Mostly Cloudy
1:55 PM 25.2 °F 13.3 °F 6.1 °F 44% 30.40 in 10.0 mi East 13.8 mph - N/A   Mostly Cloudy
2:55 PM 26.1 °F 15.0 °F 6.3 °F 43% 30.37 in 10.0 mi East 12.7 mph - N/A   Mostly Cloudy
3:55 PM 25.7 °F 16.4 °F 7.0 °F 45% 30.33 in 10.0 mi East 9.2 mph - N/A   Overcast
4:55 PM 25.9 °F 16.0 °F 7.3 °F 46% 30.31 in 10.0 mi East 10.4 mph - N/A   Overcast
5:55 PM 26.2 °F 17.8 °F 8.2 °F 47% 30.30 in 10.0 mi East 8.1 mph - N/A   Overcast
6:55 PM 26.6 °F 16.8 °F 8.6 °F 47% 30.29 in 10.0 mi East 10.4 mph - N/A   Overcast
7:14 PM 26.6 °F 17.5 °F 8.6 °F 47% 30.27 in 10.0 mi East 9.2 mph - N/A   Overcast
7:55 PM 26.6 °F 16.8 °F 9.3 °F 48% 30.27 in 10.0 mi East 10.4 mph - N/A   Overcast
8:24 PM 26.6 °F 20.0 °F 8.6 °F 47% 30.28 in 10.0 mi ENE 5.8 mph - N/A   Overcast
8:55 PM 26.8 °F 19.3 °F 9.1 °F 47% 30.26 in 10.0 mi East 6.9 mph - N/A   Overcast
8:57 PM 26.6 °F 18.2 °F 10.4 °F 51% 30.25 in 10.0 mi ESE 8.1 mph - N/A   Overcast
9:55 PM 27.3 °F 20.9 °F 10.4 °F 49% 30.24 in 10.0 mi East 5.8 mph - N/A   Overcast
10:55 PM 27.7 °F 20.4 °F 10.0 °F 48% 30.22 in 10.0 mi ESE 6.9 mph - N/A   Overcast
11:55 PM 27.9 °F 21.5 °F 10.4 °F 48% 30.20 in 10.0 mi ESE 5.8 mph - N/A   Overcast